Location: Milton
(43.5183°N, 79.8775°W)
Time: 15:16:14
(UTC+00:00)

UNISAT 6 - Pass Details

Date: 23 March 2023
Orbit: 599 x 680 km, 97.7° (Epoch: 02 June)

Event Time Altitude Azimuth Distance (km) Brightness Sun altitude
Rises 09:44:12 0° 154° (SSE) 2,865 ? -17.5°
Reaches altitude 10° 09:46:23 10° 150° (SSE) 1,975 ? -17.1°
Maximum altitude 09:50:34 55° 73° (ENE) 758 ? -16.4°
Drops below altitude 10° 09:54:54 10° 356° (N) 2,038 ? -15.6°
Sets 09:57:10 0° 352° (N) 2,966 ? -15.2°
